Location: Allentsteig
(48.6833°N, 15.3167°E)
Time: 06:46:09
(UTC+00:00)

Resurs 01 Rocket - Pass Details

Date: 18 September 2020
Orbit: 633 x 645 km, 98.0° (Epoch: 23 October)

Event Time Altitude Azimuth Distance (km) Brightness Sun altitude
Exits shadow 20:56:50 14° 272° (W) 1,801 4.3 -34.0°
Drops below altitude 10° 20:59:08 10° 303° (WNW) 2,051 4.9 -34.2°
Sets 21:02:26 0° 329° (NNW) 2,966 6.1 -34.5°
